Weather History for KSLN - June, 2013

Change the Weather History Date:

Saturday, June 29, 2013

  Actual Average Record
Temperature  
Mean Temperature 78 °F 80 °F  
Max Temperature 91 °F 92 °F 110 °F (1933)
Min Temperature 65 °F 68 °F 48 °F (1923)
Degree Days  
Heating Degree Days 0 0  
Month to date heating degree days 7 5  
Since 1 June heating degree days 7 5  
Since 1 July heating degree days 4924 4869  
Cooling Degree Days 13 15  
Month to date cooling degree days 380 311  
Year to date cooling degree days 521 439  
Since 1 June cooling degree days 380 311  
Growing Degree Days 27 (Base 50)    
Moisture  
Dew Point 53 °F    
Average Humidity 50    
Maximum Humidity 73    
Minimum Humidity 26    
Precipitation  
Precipitation 0.00 in 0.13 in 2.14 in (2003)
Month to date precipitation 2.24 3.99  
Year to date precipitation 15.48 15.98  
Sea Level Pressure  
Sea Level Pressure 29.93 in    
Wind  
Wind Speed 14 mph (NNW)    
Max Wind Speed 30 mph    
Max Gust Speed 38 mph    
Visibility 10 miles    
Events      
T = Trace of Precipitation, MM = Missing Value Source: NWS Daily Summary

Daily Weather History Graph

Daily Weather History Graph

Search for Another Location

Airport or City:

Trip Planner

Search our weather history database for the weather conditions in past years. The results will help you decide how hot, cold, wet, or windy it might be!

Date:

Astronomy

Jun. 29, 2013 Rise Set
Actual Time 6:08 AM CDT 8:59 PM CDT
Civil Twilight 5:36 AM CDT 9:31 PM CDT
Nautical Twilight 4:56 AM CDT 10:11 PM CDT
Astronomical Twilight 4:10 AM CDT 10:57 PM CDT
Moon 12:33 AM CDT (6/29) 1:16 PM CDT (6/29)
Length of Visible Light 15h 55m
Length of Day
14h 51m
Waning Gibbous, 55% of the Moon is Illuminated
Jun 29
Waning Gibbous
Jun 29
Last Quarter
Jul 8
New
Jul 15
First Quarter
Jul 22
Full

Hourly Weather History & Observations

Time (CDT) Temp. Heat Index Dew Point Humidity Pressure Visibility Wind Dir Wind Speed Gust Speed Precip Events Conditions
12:53 AM 71.1 °F - 55.0 °F 57% 29.93 in 10.0 mi NW 3.5 mph - N/A   Clear
1:53 AM 70.0 °F - 55.0 °F 59% 29.95 in 10.0 mi WNW 5.8 mph - N/A   Clear
2:53 AM 68.0 °F - 55.9 °F 65% 29.95 in 10.0 mi WNW 3.5 mph - N/A   Clear
3:53 AM 66.9 °F - 55.9 °F 68% 29.95 in 10.0 mi WNW 3.5 mph - N/A   Clear
4:53 AM 66.0 °F - 55.9 °F 70% 29.95 in 10.0 mi WNW 5.8 mph - N/A   Clear
5:53 AM 64.9 °F - 55.9 °F 73% 29.96 in 10.0 mi WNW 8.1 mph - N/A   Clear
6:53 AM 66.9 °F - 57.0 °F 70% 29.97 in 10.0 mi WNW 4.6 mph - N/A   Clear
7:53 AM 73.0 °F - 57.9 °F 59% 29.96 in 10.0 mi NW 9.2 mph - N/A   Clear
8:53 AM 79.0 °F - 57.0 °F 47% 29.97 in 10.0 mi NW 12.7 mph - N/A   Scattered Clouds
9:53 AM 82.0 °F 81.6 °F 55.9 °F 41% 29.98 in 10.0 mi NNW 10.4 mph - N/A   Clear
10:53 AM 84.9 °F 83.7 °F 55.9 °F 37% 29.96 in 10.0 mi NNW 15.0 mph 20.7 mph N/A   Clear
11:53 AM 87.1 °F 85.3 °F 55.0 °F 33% 29.94 in 10.0 mi North 17.3 mph 23.0 mph N/A   Clear
12:53 PM 88.0 °F 85.7 °F 53.1 °F 30% 29.93 in 10.0 mi North 18.4 mph - N/A   Partly Cloudy
1:53 PM 90.0 °F - 52.0 °F 27% 29.92 in 10.0 mi NNW 21.9 mph 35.7 mph N/A   Partly Cloudy
2:53 PM 90.0 °F - 52.0 °F 27% 29.91 in 10.0 mi NNW 27.6 mph 33.4 mph N/A   Partly Cloudy
3:53 PM 90.0 °F - 51.1 °F 26% 29.90 in 10.0 mi North 27.6 mph 32.2 mph N/A   Partly Cloudy
4:53 PM 88.0 °F - 48.9 °F 26% 29.89 in 10.0 mi North 23.0 mph 33.4 mph N/A   Clear
5:53 PM 87.1 °F - 48.0 °F 26% 29.89 in 10.0 mi North 20.7 mph 33.4 mph N/A   Clear
6:53 PM 86.0 °F - 48.0 °F 27% 29.88 in 10.0 mi North 26.5 mph 33.4 mph N/A   Clear
7:53 PM 82.9 °F - 46.9 °F 28% 29.89 in 10.0 mi North 19.6 mph 28.8 mph N/A   Clear
8:53 PM 81.0 °F - 48.9 °F 33% 29.89 in 10.0 mi North 15.0 mph - N/A   Clear
9:53 PM 75.9 °F - 50.0 °F 40% 29.91 in 10.0 mi North 10.4 mph - N/A   Clear
10:53 PM 72.0 °F - 52.0 °F 49% 29.94 in 10.0 mi North 5.8 mph - N/A   Clear
11:53 PM 69.1 °F - 53.1 °F 57% 29.95 in 10.0 mi North 8.1 mph - N/A   Clear